Year,Month,Day,Hour,Minute,Value (Times are PST for temperature in C)
2009,04,23,00,00,5.20
2009,04,23,00,01,5.20
2009,04,23,00,02,5.20
2009,04,23,00,03,5.20
2009,04,23,00,04,5.20
2009,04,23,00,05,5.20
2009,04,23,00,06,5.20
2009,04,23,00,07,5.20
2009,04,23,00,08,5.20
2009,04,23,00,09,5.20
2009,04,23,00,10,5.20
2009,04,23,00,11,5.20
2009,04,23,00,12,5.20
2009,04,23,00,13,5.10
2009,04,23,00,14,5.10
2009,04,23,00,15,5.10
2009,04,23,00,16,5.10
2009,04,23,00,17,5.10
2009,04,23,00,18,5.10
2009,04,23,00,19,5.10
2009,04,23,00,20,5.10
2009,04,23,00,21,5.10
2009,04,23,00,22,5.10
2009,04,23,00,23,5.10
2009,04,23,00,24,5.10
2009,04,23,00,25,5.10
2009,04,23,00,26,5.10
2009,04,23,00,27,5.10
2009,04,23,00,28,5.10
2009,04,23,00,29,5.10
2009,04,23,00,30,5.10
2009,04,23,00,31,5.10
2009,04,23,00,32,5.00
2009,04,23,00,33,5.00
2009,04,23,00,34,5.00
2009,04,23,00,35,5.00
2009,04,23,00,36,5.00
2009,04,23,00,37,5.00
2009,04,23,00,38,5.00
2009,04,23,00,39,5.00
2009,04,23,00,40,5.00
2009,04,23,00,41,5.00
2009,04,23,00,42,5.10
2009,04,23,00,43,5.10
2009,04,23,00,44,5.10
2009,04,23,00,45,5.10
2009,04,23,00,46,5.00
2009,04,23,00,47,5.00
2009,04,23,00,48,5.00
2009,04,23,00,49,5.00
2009,04,23,00,50,5.00
2009,04,23,00,51,4.90
2009,04,23,00,52,4.90
2009,04,23,00,53,4.90
2009,04,23,00,54,4.90
2009,04,23,00,55,4.90
2009,04,23,00,56,4.90
2009,04,23,00,57,4.80
2009,04,23,00,58,4.80
2009,04,23,00,59,4.80
2009,04,23,01,00,4.80
2009,04,23,01,01,4.80
2009,04,23,01,02,4.80
2009,04,23,01,03,4.80
2009,04,23,01,04,4.80
2009,04,23,01,05,4.80
2009,04,23,01,06,4.80
2009,04,23,01,07,4.80
2009,04,23,01,08,4.80
2009,04,23,01,09,4.80
2009,04,23,01,10,4.80
2009,04,23,01,11,4.80
2009,04,23,01,12,4.80
2009,04,23,01,13,4.80
2009,04,23,01,14,4.80
2009,04,23,01,15,4.80
2009,04,23,01,16,4.80
2009,04,23,01,17,4.80
2009,04,23,01,18,4.80
2009,04,23,01,19,4.80
2009,04,23,01,20,4.80
2009,04,23,01,21,4.80
2009,04,23,01,22,4.80
2009,04,23,01,23,4.80
2009,04,23,01,24,4.80
2009,04,23,01,25,4.80
2009,04,23,01,26,4.80
2009,04,23,01,27,4.80
2009,04,23,01,28,4.90
2009,04,23,01,29,4.90
2009,04,23,01,30,4.80
2009,04,23,01,31,4.90
2009,04,23,01,32,4.90
2009,04,23,01,33,4.90
2009,04,23,01,34,4.90
2009,04,23,01,35,4.90
2009,04,23,01,36,4.90
2009,04,23,01,37,4.90
2009,04,23,01,38,4.90
2009,04,23,01,39,4.90
2009,04,23,01,40,5.00
2009,04,23,01,41,5.00
2009,04,23,01,42,5.00
2009,04,23,01,43,5.00
2009,04,23,01,44,5.10
2009,04,23,01,45,5.10
2009,04,23,01,46,5.10
2009,04,23,01,47,5.10
2009,04,23,01,48,5.10
2009,04,23,01,49,5.10
2009,04,23,01,50,5.10
2009,04,23,01,51,5.10
2009,04,23,01,52,5.20
2009,04,23,01,53,5.20
2009,04,23,01,54,5.20
2009,04,23,01,55,5.20
2009,04,23,01,56,5.20
2009,04,23,01,57,5.20
2009,04,23,01,58,5.20
2009,04,23,01,59,5.20
2009,04,23,02,00,5.20
2009,04,23,02,01,5.20
2009,04,23,02,02,5.20
2009,04,23,02,03,5.20
2009,04,23,02,04,5.20
2009,04,23,02,05,5.20
2009,04,23,02,06,5.20
2009,04,23,02,07,5.20
2009,04,23,02,08,5.20
2009,04,23,02,09,5.20
2009,04,23,02,10,5.20
2009,04,23,02,11,5.20
2009,04,23,02,12,5.20
2009,04,23,02,13,5.20
2009,04,23,02,14,5.20
2009,04,23,02,15,5.10
2009,04,23,02,16,5.10
2009,04,23,02,17,5.10
2009,04,23,02,18,5.10
2009,04,23,02,19,5.10
2009,04,23,02,20,5.10
2009,04,23,02,21,5.10
2009,04,23,02,22,5.10
2009,04,23,02,23,5.10
2009,04,23,02,24,5.10
2009,04,23,02,25,5.10
2009,04,23,02,26,5.10
2009,04,23,02,27,5.10
2009,04,23,02,28,5.10
2009,04,23,02,29,5.10
2009,04,23,02,30,5.10
2009,04,23,02,31,5.00
2009,04,23,02,32,5.00
2009,04,23,02,33,5.00
2009,04,23,02,34,5.00
2009,04,23,02,35,5.00
2009,04,23,02,36,5.00
2009,04,23,02,37,4.90
2009,04,23,02,38,4.90
2009,04,23,02,39,4.90
2009,04,23,02,40,4.90
2009,04,23,02,41,4.90
2009,04,23,02,42,4.90
2009,04,23,02,43,4.90
2009,04,23,02,44,4.80
2009,04,23,02,45,4.80
2009,04,23,02,46,4.80
2009,04,23,02,47,4.80
2009,04,23,02,48,4.70
2009,04,23,02,49,4.70
2009,04,23,02,50,4.70
2009,04,23,02,51,4.60
2009,04,23,02,52,4.60
2009,04,23,02,53,4.50
2009,04,23,02,54,4.50
2009,04,23,02,55,4.40
2009,04,23,02,56,4.40
2009,04,23,02,57,4.30
2009,04,23,02,58,4.30
2009,04,23,02,59,4.30
2009,04,23,03,00,4.20
2009,04,23,03,01,4.20
2009,04,23,03,02,4.10
2009,04,23,03,03,4.10
2009,04,23,03,04,4.10
2009,04,23,03,05,4.10
2009,04,23,03,06,4.00
2009,04,23,03,07,4.00
2009,04,23,03,08,4.00
2009,04,23,03,09,4.00
2009,04,23,03,10,3.90
2009,04,23,03,11,3.90
2009,04,23,03,12,3.90
2009,04,23,03,13,3.90
2009,04,23,03,14,3.90
2009,04,23,03,15,3.90
2009,04,23,03,16,3.90
2009,04,23,03,17,3.90
2009,04,23,03,18,3.80
2009,04,23,03,19,3.80
2009,04,23,03,20,3.80
2009,04,23,03,21,3.80
2009,04,23,03,22,3.80
2009,04,23,03,23,3.70
2009,04,23,03,24,3.70
2009,04,23,03,25,3.70
2009,04,23,03,26,3.70
2009,04,23,03,27,3.60
2009,04,23,03,28,3.60
2009,04,23,03,29,3.60
2009,04,23,03,30,3.60
2009,04,23,03,31,3.60
2009,04,23,03,32,3.60
2009,04,23,03,33,3.60
2009,04,23,03,34,3.60
2009,04,23,03,35,3.60
2009,04,23,03,36,3.60
2009,04,23,03,37,3.50
2009,04,23,03,38,3.50
2009,04,23,03,39,3.50
2009,04,23,03,40,3.40
2009,04,23,03,41,3.40
2009,04,23,03,42,3.40
2009,04,23,03,43,3.40
2009,04,23,03,44,3.40
2009,04,23,03,45,3.40
2009,04,23,03,46,3.40
2009,04,23,03,47,3.40
2009,04,23,03,48,3.30
2009,04,23,03,49,3.30
2009,04,23,03,50,3.30
2009,04,23,03,51,3.30
2009,04,23,03,52,3.20
2009,04,23,03,53,3.20
2009,04,23,03,54,3.20
2009,04,23,03,55,3.20
2009,04,23,03,56,3.20
2009,04,23,03,57,3.20
2009,04,23,03,58,3.10
2009,04,23,03,59,3.10
2009,04,23,04,00,3.00
2009,04,23,04,01,3.00
2009,04,23,04,02,2.90
2009,04,23,04,03,2.90
2009,04,23,04,04,2.90
2009,04,23,04,05,2.90
2009,04,23,04,06,2.90
2009,04,23,04,07,2.90
2009,04,23,04,08,2.90
2009,04,23,04,09,2.90
2009,04,23,04,10,2.90
2009,04,23,04,11,2.90
2009,04,23,04,12,2.90
2009,04,23,04,13,2.90
2009,04,23,04,14,2.80
2009,04,23,04,15,2.80
2009,04,23,04,16,2.70
2009,04,23,04,17,2.70
2009,04,23,04,18,2.70
2009,04,23,04,19,2.60
2009,04,23,04,20,2.60
2009,04,23,04,21,2.50
2009,04,23,04,22,2.50
2009,04,23,04,23,2.50
2009,04,23,04,24,2.40
2009,04,23,04,25,2.40
2009,04,23,04,26,2.40
2009,04,23,04,27,2.40
2009,04,23,04,28,2.40
2009,04,23,04,29,2.40
2009,04,23,04,30,2.40
2009,04,23,04,31,2.40
2009,04,23,04,32,2.40
2009,04,23,04,33,2.40
2009,04,23,04,34,2.40
2009,04,23,04,35,2.40
2009,04,23,04,36,2.40
2009,04,23,04,37,2.40
2009,04,23,04,38,2.40
2009,04,23,04,39,2.30
2009,04,23,04,40,2.30
2009,04,23,04,41,2.30
2009,04,23,04,42,2.30
2009,04,23,04,43,2.30
2009,04,23,04,44,2.30
2009,04,23,04,45,2.30
2009,04,23,04,46,2.30
2009,04,23,04,47,2.30
2009,04,23,04,48,2.30
2009,04,23,04,49,2.20
2009,04,23,04,50,2.20
2009,04,23,04,51,2.20
2009,04,23,04,52,2.10
2009,04,23,04,53,2.10
2009,04,23,04,54,2.10
2009,04,23,04,55,2.00
2009,04,23,04,56,2.00
2009,04,23,04,57,2.00
2009,04,23,04,58,1.90
2009,04,23,04,59,1.90
2009,04,23,05,00,1.90
2009,04,23,05,01,1.90
2009,04,23,05,02,1.90
2009,04,23,05,03,1.90
2009,04,23,05,04,1.90
2009,04,23,05,05,1.90
2009,04,23,05,06,1.90
2009,04,23,05,07,1.90
2009,04,23,05,08,1.90
2009,04,23,05,09,1.90
2009,04,23,05,10,1.80
2009,04,23,05,11,1.80
2009,04,23,05,12,1.80
2009,04,23,05,13,1.80
2009,04,23,05,14,1.80
2009,04,23,05,15,1.70
2009,04,23,05,16,1.70
2009,04,23,05,17,1.70
2009,04,23,05,18,1.70
2009,04,23,05,19,1.70
2009,04,23,05,20,1.70
2009,04,23,05,21,1.60
2009,04,23,05,22,1.60
2009,04,23,05,23,1.60
2009,04,23,05,24,1.60
2009,04,23,05,25,1.60
2009,04,23,05,26,1.50
2009,04,23,05,27,1.50
2009,04,23,05,28,1.50
2009,04,23,05,29,1.50
2009,04,23,05,30,1.50
2009,04,23,05,31,1.50
2009,04,23,05,32,1.50
2009,04,23,05,33,1.60
2009,04,23,05,34,1.60
2009,04,23,05,35,1.60
2009,04,23,05,36,1.50
2009,04,23,05,37,1.50
2009,04,23,05,38,1.40
2009,04,23,05,39,1.40
2009,04,23,05,40,1.40
2009,04,23,05,41,1.40
2009,04,23,05,42,1.40
2009,04,23,05,43,1.30
2009,04,23,05,44,1.30
2009,04,23,05,45,1.30
2009,04,23,05,46,1.30
2009,04,23,05,47,1.30
2009,04,23,05,48,1.30
2009,04,23,05,49,1.30
2009,04,23,05,50,1.30
2009,04,23,05,51,1.30
2009,04,23,05,52,1.30
2009,04,23,05,53,1.30
2009,04,23,05,54,1.30
2009,04,23,05,55,1.30
2009,04,23,05,56,1.30
2009,04,23,05,57,1.30
2009,04,23,05,58,1.30
2009,04,23,05,59,1.30
2009,04,23,06,00,1.30
2009,04,23,06,01,1.30
2009,04,23,06,02,1.30
2009,04,23,06,03,1.30
2009,04,23,06,04,1.30
2009,04,23,06,05,1.30
2009,04,23,06,06,1.30
2009,04,23,06,07,1.30
2009,04,23,06,08,1.30
2009,04,23,06,09,1.30
2009,04,23,06,10,1.30
2009,04,23,06,11,1.30
2009,04,23,06,12,1.30
2009,04,23,06,13,1.30
2009,04,23,06,14,1.30
2009,04,23,06,15,1.30
2009,04,23,06,16,1.30
2009,04,23,06,17,1.30
2009,04,23,06,18,1.30
2009,04,23,06,19,1.30
2009,04,23,06,20,1.30
2009,04,23,06,21,1.30
2009,04,23,06,22,1.30
2009,04,23,06,23,1.30
2009,04,23,06,24,1.30
2009,04,23,06,25,1.40
2009,04,23,06,26,1.40
2009,04,23,06,27,1.40
2009,04,23,06,28,1.40
2009,04,23,06,29,1.50
2009,04,23,06,30,1.50
2009,04,23,06,31,1.60
2009,04,23,06,32,1.60
2009,04,23,06,33,1.60
2009,04,23,06,34,1.60
2009,04,23,06,35,1.60
2009,04,23,06,36,1.60
2009,04,23,06,37,1.60
2009,04,23,06,38,1.60
2009,04,23,06,39,1.60
2009,04,23,06,40,1.50
2009,04,23,06,41,1.50
2009,04,23,06,42,1.50
2009,04,23,06,43,1.60
2009,04,23,06,44,1.60
2009,04,23,06,45,1.60
2009,04,23,06,46,1.60
2009,04,23,06,47,1.60
2009,04,23,06,48,1.70
2009,04,23,06,49,1.70
2009,04,23,06,50,1.70
2009,04,23,06,51,1.70
2009,04,23,06,52,1.70
2009,04,23,06,53,1.70
2009,04,23,06,54,1.70
2009,04,23,06,55,1.70
2009,04,23,06,56,1.70
2009,04,23,06,57,1.60
2009,04,23,06,58,1.60
2009,04,23,06,59,1.70
2009,04,23,07,00,1.70
2009,04,23,07,01,1.70
2009,04,23,07,02,1.70
2009,04,23,07,03,1.70
2009,04,23,07,04,1.70
2009,04,23,07,05,1.70
2009,04,23,07,06,1.70
2009,04,23,07,07,1.70
2009,04,23,07,08,1.70
2009,04,23,07,09,1.80
2009,04,23,07,10,1.80
2009,04,23,07,11,1.90
2009,04,23,07,12,2.00
2009,04,23,07,13,2.10
2009,04,23,07,14,2.20
2009,04,23,07,15,2.30
2009,04,23,07,16,2.40
2009,04,23,07,17,2.50
2009,04,23,07,18,2.60
2009,04,23,07,19,2.70
2009,04,23,07,20,2.80
2009,04,23,07,21,2.80
2009,04,23,07,22,2.90
2009,04,23,07,23,3.00
2009,04,23,07,24,3.10
2009,04,23,07,25,3.20
2009,04,23,07,26,3.30
2009,04,23,07,27,3.40
2009,04,23,07,28,3.50
2009,04,23,07,29,3.60
2009,04,23,07,30,3.70
2009,04,23,07,31,3.80
2009,04,23,07,32,4.00
2009,04,23,07,33,4.10
2009,04,23,07,34,4.20
2009,04,23,07,35,4.20
2009,04,23,07,36,4.30
2009,04,23,07,37,4.40
2009,04,23,07,38,4.50
2009,04,23,07,39,4.60
2009,04,23,07,40,4.70
2009,04,23,07,41,4.80
2009,04,23,07,42,4.90
2009,04,23,07,43,4.90
2009,04,23,07,44,5.00
2009,04,23,07,45,5.10
2009,04,23,07,46,5.20
2009,04,23,07,47,5.30
2009,04,23,07,48,5.40
2009,04,23,07,49,5.50
2009,04,23,07,50,5.60
2009,04,23,07,51,5.70
2009,04,23,07,52,5.70
2009,04,23,07,53,5.80
2009,04,23,07,54,5.80
2009,04,23,07,55,5.80
2009,04,23,07,56,5.90
2009,04,23,07,57,5.90
2009,04,23,07,58,5.90
2009,04,23,07,59,6.00
2009,04,23,08,00,6.10
2009,04,23,08,01,6.20
2009,04,23,08,02,6.30
2009,04,23,08,03,6.40
2009,04,23,08,04,6.50
2009,04,23,08,05,6.60
2009,04,23,08,06,6.70
2009,04,23,08,07,6.90
2009,04,23,08,08,7.00
2009,04,23,08,09,7.10
2009,04,23,08,10,7.20
2009,04,23,08,11,7.20
2009,04,23,08,12,7.20
2009,04,23,08,13,7.30
2009,04,23,08,14,7.30
2009,04,23,08,15,7.40
2009,04,23,08,16,7.50
2009,04,23,08,17,7.60
2009,04,23,08,18,7.60
2009,04,23,08,19,7.70
2009,04,23,08,20,7.80
2009,04,23,08,21,7.80
2009,04,23,08,22,7.90
2009,04,23,08,23,8.00
2009,04,23,08,24,8.10
2009,04,23,08,25,8.10
2009,04,23,08,26,8.20
2009,04,23,08,27,8.30
2009,04,23,08,28,8.30
2009,04,23,08,29,8.40
2009,04,23,08,30,8.40
2009,04,23,08,31,8.50
2009,04,23,08,32,8.50
2009,04,23,08,33,8.60
2009,04,23,08,34,8.60
2009,04,23,08,35,8.60
2009,04,23,08,36,8.70
2009,04,23,08,37,8.70
2009,04,23,08,38,8.80
2009,04,23,08,39,8.80
2009,04,23,08,40,8.90
2009,04,23,08,41,8.90
2009,04,23,08,42,8.90
2009,04,23,08,43,9.00
2009,04,23,08,44,9.10
2009,04,23,08,45,9.10
2009,04,23,08,46,9.20
2009,04,23,08,47,9.10
2009,04,23,08,48,9.10
2009,04,23,08,49,9.00
2009,04,23,08,50,9.10
2009,04,23,08,51,9.10
2009,04,23,08,52,9.10
2009,04,23,08,53,9.10
2009,04,23,08,54,9.20
2009,04,23,08,55,9.30
2009,04,23,08,56,9.30
2009,04,23,08,57,9.40
2009,04,23,08,58,9.40
2009,04,23,08,59,9.40
2009,04,23,09,00,9.40
2009,04,23,09,01,9.30
2009,04,23,09,02,9.20
2009,04,23,09,03,9.20
2009,04,23,09,04,9.20
2009,04,23,09,05,9.20
2009,04,23,09,06,9.20
2009,04,23,09,07,9.30
2009,04,23,09,08,9.40
2009,04,23,09,09,9.40
2009,04,23,09,10,9.50
2009,04,23,09,11,9.60
2009,04,23,09,12,9.60
2009,04,23,09,13,9.60
2009,04,23,09,14,9.60
2009,04,23,09,15,9.60
2009,04,23,09,16,9.70
2009,04,23,09,17,9.70
2009,04,23,09,18,9.70
2009,04,23,09,19,9.70
2009,04,23,09,20,9.70
2009,04,23,09,21,9.70
2009,04,23,09,22,9.70
2009,04,23,09,23,9.70
2009,04,23,09,24,9.60
2009,04,23,09,25,9.60
2009,04,23,09,26,9.60
2009,04,23,09,27,9.70
2009,04,23,09,28,9.60
2009,04,23,09,29,9.60
2009,04,23,09,30,9.60
2009,04,23,09,31,9.70
2009,04,23,09,32,9.70
2009,04,23,09,33,9.80
2009,04,23,09,34,9.90
2009,04,23,09,35,9.90
2009,04,23,09,36,10.00
2009,04,23,09,37,10.00
2009,04,23,09,38,10.10
2009,04,23,09,39,10.10
2009,04,23,09,40,10.10
2009,04,23,09,41,10.00
2009,04,23,09,42,9.90
2009,04,23,09,43,9.80
2009,04,23,09,44,9.70
2009,04,23,09,45,9.60
2009,04,23,09,46,9.60
2009,04,23,09,47,9.60
2009,04,23,09,48,9.70
2009,04,23,09,49,9.70
2009,04,23,09,50,9.80
2009,04,23,09,51,9.80
2009,04,23,09,52,9.80
2009,04,23,09,53,9.80
2009,04,23,09,54,9.80
2009,04,23,09,55,9.70
2009,04,23,09,56,9.70
2009,04,23,09,57,9.60
2009,04,23,09,58,9.60
2009,04,23,09,59,9.50
2009,04,23,10,00,9.40
2009,04,23,10,01,9.40
2009,04,23,10,02,9.40
2009,04,23,10,03,9.40
2009,04,23,10,04,9.50
2009,04,23,10,05,9.60
2009,04,23,10,06,9.70
2009,04,23,10,07,9.70
2009,04,23,10,08,9.70
2009,04,23,10,09,9.80
2009,04,23,10,10,9.80
2009,04,23,10,11,9.80
2009,04,23,10,12,9.60
2009,04,23,10,13,9.70
2009,04,23,10,14,9.60
2009,04,23,10,15,9.50
2009,04,23,10,16,9.40
2009,04,23,10,17,9.40
2009,04,23,10,18,9.40
2009,04,23,10,19,9.40
2009,04,23,10,20,9.40
2009,04,23,10,21,9.40
2009,04,23,10,22,9.40
2009,04,23,10,23,9.40
2009,04,23,10,24,9.30
2009,04,23,10,25,9.30
2009,04,23,10,26,9.20
2009,04,23,10,27,9.10
2009,04,23,10,28,9.10
2009,04,23,10,29,9.10
2009,04,23,10,30,9.10
2009,04,23,10,31,9.10
2009,04,23,10,32,9.10
2009,04,23,10,33,9.10
2009,04,23,10,34,9.10
2009,04,23,10,35,9.10
2009,04,23,10,36,9.20
2009,04,23,10,37,9.10
2009,04,23,10,38,9.00
2009,04,23,10,39,8.90
2009,04,23,10,40,8.90
2009,04,23,10,41,8.90
2009,04,23,10,42,8.90
2009,04,23,10,43,8.90
2009,04,23,10,44,8.90
2009,04,23,10,45,8.90
2009,04,23,10,46,8.90
2009,04,23,10,47,8.90
2009,04,23,10,48,8.90
2009,04,23,10,49,8.90
2009,04,23,10,50,8.90
2009,04,23,10,51,8.90
2009,04,23,10,52,8.90
2009,04,23,10,53,9.00
2009,04,23,10,54,9.00
2009,04,23,10,55,9.00
2009,04,23,10,56,9.00
2009,04,23,10,57,8.90
2009,04,23,10,58,9.00
2009,04,23,10,59,9.00
2009,04,23,11,00,8.90
2009,04,23,11,01,9.00
2009,04,23,11,02,9.00
2009,04,23,11,03,9.10
2009,04,23,11,04,9.20
2009,04,23,11,05,9.30
2009,04,23,11,06,9.40
2009,04,23,11,07,9.60
2009,04,23,11,08,9.70
2009,04,23,11,09,9.70
2009,04,23,11,10,9.70
2009,04,23,11,11,9.70
2009,04,23,11,12,9.70
2009,04,23,11,13,9.80
2009,04,23,11,14,9.80
2009,04,23,11,15,9.90
2009,04,23,11,16,9.90
2009,04,23,11,17,10.00
2009,04,23,11,18,10.10
2009,04,23,11,19,10.20
2009,04,23,11,20,10.30
2009,04,23,11,21,10.40
2009,04,23,11,22,10.50
2009,04,23,11,23,10.60
2009,04,23,11,24,10.60
2009,04,23,11,25,10.60
2009,04,23,11,26,10.60
2009,04,23,11,27,10.60
2009,04,23,11,28,10.60
2009,04,23,11,29,10.50
2009,04,23,11,30,10.40
2009,04,23,11,31,10.40
2009,04,23,11,32,10.30
2009,04,23,11,33,10.30
2009,04,23,11,34,10.30
2009,04,23,11,35,10.20
2009,04,23,11,36,10.10
2009,04,23,11,37,9.90
2009,04,23,11,38,9.80
2009,04,23,11,39,9.70
2009,04,23,11,40,9.60
2009,04,23,11,41,9.50
2009,04,23,11,42,9.30
2009,04,23,11,43,9.20
2009,04,23,11,44,9.10
2009,04,23,11,45,9.00
2009,04,23,11,46,8.90
2009,04,23,11,47,8.80
2009,04,23,11,48,8.80
2009,04,23,11,49,8.70
2009,04,23,11,50,8.70
2009,04,23,11,51,8.70
2009,04,23,11,52,8.60
2009,04,23,11,53,8.60
2009,04,23,11,54,8.50
2009,04,23,11,55,8.50
2009,04,23,11,56,8.40
2009,04,23,11,57,8.40
2009,04,23,11,58,8.30
2009,04,23,11,59,8.30
2009,04,23,12,00,8.30
2009,04,23,12,01,8.30
2009,04,23,12,02,8.40
2009,04,23,12,03,8.40
2009,04,23,12,04,8.40
2009,04,23,12,05,8.40
2009,04,23,12,06,8.50
2009,04,23,12,07,8.60
2009,04,23,12,08,8.60
2009,04,23,12,09,8.60
2009,04,23,12,10,8.60
2009,04,23,12,11,8.60
2009,04,23,12,12,8.70
2009,04,23,12,13,8.70
2009,04,23,12,14,8.70
2009,04,23,12,15,8.70
2009,04,23,12,16,8.70
2009,04,23,12,17,8.80
2009,04,23,12,18,8.80
2009,04,23,12,19,8.90
2009,04,23,12,20,9.00
2009,04,23,12,21,9.10
2009,04,23,12,22,9.10
2009,04,23,12,23,9.10
2009,04,23,12,24,9.20
2009,04,23,12,25,9.10
2009,04,23,12,26,9.10
2009,04,23,12,27,9.10
2009,04,23,12,28,9.20
2009,04,23,12,29,9.30
2009,04,23,12,30,9.20
2009,04,23,12,31,9.10
2009,04,23,12,32,9.10
2009,04,23,12,33,9.20
2009,04,23,12,34,9.40
2009,04,23,12,35,9.40
2009,04,23,12,36,9.50
2009,04,23,12,37,9.50
2009,04,23,12,38,9.40
2009,04,23,12,39,9.50
2009,04,23,12,40,9.60
2009,04,23,12,41,9.70
2009,04,23,12,42,9.80
2009,04,23,12,43,9.70
2009,04,23,12,44,9.50
2009,04,23,12,45,9.40
2009,04,23,12,46,9.30
2009,04,23,12,47,9.30
2009,04,23,12,48,9.30
2009,04,23,12,49,9.20
2009,04,23,12,50,9.00
2009,04,23,12,51,9.00
2009,04,23,12,52,8.90
2009,04,23,12,53,8.90
2009,04,23,12,54,9.10
2009,04,23,12,55,9.20
2009,04,23,12,56,9.20
2009,04,23,12,57,9.40
2009,04,23,12,58,9.50
2009,04,23,12,59,9.60
2009,04,23,13,00,9.60
2009,04,23,13,01,9.60
2009,04,23,13,02,9.60
2009,04,23,13,03,9.40
2009,04,23,13,04,9.40
2009,04,23,13,05,9.40
2009,04,23,13,06,9.40
2009,04,23,13,07,9.50
2009,04,23,13,08,9.60
2009,04,23,13,09,9.70
2009,04,23,13,10,9.60
2009,04,23,13,11,9.40
2009,04,23,13,12,9.30
2009,04,23,13,13,9.20
2009,04,23,13,14,9.20
2009,04,23,13,15,9.10
2009,04,23,13,16,9.10
2009,04,23,13,17,9.10
2009,04,23,13,18,9.10
2009,04,23,13,19,9.10
2009,04,23,13,20,9.10
2009,04,23,13,21,9.20
2009,04,23,13,22,9.20
2009,04,23,13,23,9.20
2009,04,23,13,24,9.20
2009,04,23,13,25,9.20
2009,04,23,13,26,9.30
2009,04,23,13,27,9.20
2009,04,23,13,28,9.20
2009,04,23,13,29,9.20
2009,04,23,13,30,9.30
2009,04,23,13,31,9.30
2009,04,23,13,32,9.30
2009,04,23,13,33,9.20
2009,04,23,13,34,9.20
2009,04,23,13,35,9.20
2009,04,23,13,36,9.20
2009,04,23,13,37,9.10
2009,04,23,13,38,9.10
2009,04,23,13,39,9.10
2009,04,23,13,40,9.20
2009,04,23,13,41,9.20
2009,04,23,13,42,9.20
2009,04,23,13,43,9.20
2009,04,23,13,44,9.20
2009,04,23,13,45,9.20
2009,04,23,13,46,9.10
2009,04,23,13,47,9.10
2009,04,23,13,48,9.00
2009,04,23,13,49,9.00
2009,04,23,13,50,9.10
2009,04,23,13,51,9.10
2009,04,23,13,52,9.20
2009,04,23,13,53,9.30
2009,04,23,13,54,9.40
2009,04,23,13,55,9.50
2009,04,23,13,56,9.60
2009,04,23,13,57,9.60
2009,04,23,13,58,9.70
2009,04,23,13,59,9.80
2009,04,23,14,00,9.90
2009,04,23,14,01,10.00
2009,04,23,14,02,10.10
2009,04,23,14,03,10.30
2009,04,23,14,04,10.50
2009,04,23,14,05,10.60
2009,04,23,14,06,10.70
2009,04,23,14,07,10.70
2009,04,23,14,08,10.70
2009,04,23,14,09,10.80
2009,04,23,14,10,11.00
2009,04,23,14,11,11.10
2009,04,23,14,12,11.20
2009,04,23,14,13,11.20
2009,04,23,14,14,11.20
2009,04,23,14,15,11.20
2009,04,23,14,16,11.10
2009,04,23,14,17,11.00
2009,04,23,14,18,10.80
2009,04,23,14,19,10.60
2009,04,23,14,20,10.50
2009,04,23,14,21,10.40
2009,04,23,14,22,10.30
2009,04,23,14,23,10.30
2009,04,23,14,24,10.20
2009,04,23,14,25,10.20
2009,04,23,14,26,10.20
2009,04,23,14,27,10.10
2009,04,23,14,28,10.10
2009,04,23,14,29,10.10
2009,04,23,14,30,10.10
2009,04,23,14,31,10.10
2009,04,23,14,32,10.10
2009,04,23,14,33,10.20
2009,04,23,14,34,10.20
2009,04,23,14,35,10.30
2009,04,23,14,36,10.30
2009,04,23,14,37,10.40
2009,04,23,14,38,10.50
2009,04,23,14,39,10.50
2009,04,23,14,40,10.60
2009,04,23,14,41,10.70
2009,04,23,14,42,10.70
2009,04,23,14,43,10.70
2009,04,23,14,44,10.70
2009,04,23,14,45,10.70
2009,04,23,14,46,10.80
2009,04,23,14,47,10.90
2009,04,23,14,48,11.00
2009,04,23,14,49,11.10
2009,04,23,14,50,11.30
2009,04,23,14,51,11.30
2009,04,23,14,52,11.40
2009,04,23,14,53,11.50
2009,04,23,14,54,11.60
2009,04,23,14,55,11.80
2009,04,23,14,56,11.90
2009,04,23,14,57,11.80
2009,04,23,14,58,11.70
2009,04,23,14,59,11.70
2009,04,23,15,00,11.70
2009,04,23,15,01,11.70
2009,04,23,15,02,11.80
2009,04,23,15,03,11.80
2009,04,23,15,04,11.80
2009,04,23,15,05,11.80
2009,04,23,15,06,11.70
2009,04,23,15,07,11.70
2009,04,23,15,08,11.60
2009,04,23,15,09,11.50
2009,04,23,15,10,11.40
2009,04,23,15,11,11.30
2009,04,23,15,12,11.30
2009,04,23,15,13,11.30
2009,04,23,15,14,11.40
2009,04,23,15,15,11.50
2009,04,23,15,16,11.60
2009,04,23,15,17,11.50
2009,04,23,15,18,11.50
2009,04,23,15,19,11.40
2009,04,23,15,20,11.30
2009,04,23,15,21,11.30
2009,04,23,15,22,11.30
2009,04,23,15,23,11.30
2009,04,23,15,24,11.20
2009,04,23,15,25,11.20
2009,04,23,15,26,11.20
2009,04,23,15,27,11.10
2009,04,23,15,28,11.10
2009,04,23,15,29,11.00
2009,04,23,15,30,11.10
2009,04,23,15,31,11.00
2009,04,23,15,32,11.00
2009,04,23,15,33,11.00
2009,04,23,15,34,11.10
2009,04,23,15,35,11.10
2009,04,23,15,36,11.00
2009,04,23,15,37,11.00
2009,04,23,15,38,11.00
2009,04,23,15,39,11.10
2009,04,23,15,40,11.10
2009,04,23,15,41,11.20
2009,04,23,15,42,11.20
2009,04,23,15,43,11.20
2009,04,23,15,44,11.10
2009,04,23,15,45,11.10
2009,04,23,15,46,11.10
2009,04,23,15,47,11.00
2009,04,23,15,48,10.90
2009,04,23,15,49,10.80
2009,04,23,15,50,10.80
2009,04,23,15,51,10.80
2009,04,23,15,52,10.80
2009,04,23,15,53,10.80
2009,04,23,15,54,11.00
2009,04,23,15,55,11.10
2009,04,23,15,56,11.20
2009,04,23,15,57,11.30
2009,04,23,15,58,11.30
2009,04,23,15,59,11.30
2009,04,23,16,00,11.20
2009,04,23,16,01,11.10
2009,04,23,16,02,11.20
2009,04,23,16,03,11.20
2009,04,23,16,04,11.30
2009,04,23,16,05,11.40
2009,04,23,16,06,11.50
2009,04,23,16,07,11.60
2009,04,23,16,08,11.60
2009,04,23,16,09,11.80
2009,04,23,16,10,11.80
2009,04,23,16,11,11.90
2009,04,23,16,12,12.00
2009,04,23,16,13,12.10
2009,04,23,16,14,12.00
2009,04,23,16,15,11.80
2009,04,23,16,16,11.70
2009,04,23,16,17,11.60
2009,04,23,16,18,11.50
2009,04,23,16,19,11.40
2009,04,23,16,20,11.40
2009,04,23,16,21,11.30
2009,04,23,16,22,11.30
2009,04,23,16,23,11.30
2009,04,23,16,24,11.40
2009,04,23,16,25,11.60
2009,04,23,16,26,11.70
2009,04,23,16,27,11.80
2009,04,23,16,28,11.80
2009,04,23,16,29,11.80
2009,04,23,16,30,11.90
2009,04,23,16,31,11.90
2009,04,23,16,32,11.80
2009,04,23,16,33,11.80
2009,04,23,16,34,11.80
2009,04,23,16,35,11.70
2009,04,23,16,36,11.70
2009,04,23,16,37,11.60
2009,04,23,16,38,11.60
2009,04,23,16,39,11.60
2009,04,23,16,40,11.60
2009,04,23,16,41,11.60
2009,04,23,16,42,11.70
2009,04,23,16,43,11.60
2009,04,23,16,44,11.60
2009,04,23,16,45,11.70
2009,04,23,16,46,11.80
2009,04,23,16,47,11.80
2009,04,23,16,48,11.90
2009,04,23,16,49,12.00
2009,04,23,16,50,12.00
2009,04,23,16,51,12.10
2009,04,23,16,52,12.10
2009,04,23,16,53,12.00
2009,04,23,16,54,12.00
2009,04,23,16,55,12.00
2009,04,23,16,56,12.10
2009,04,23,16,57,12.20
2009,04,23,16,58,12.20
2009,04,23,16,59,12.20
2009,04,23,17,00,12.20
2009,04,23,17,01,12.00
2009,04,23,17,02,11.90
2009,04,23,17,03,11.90
2009,04,23,17,04,11.80
2009,04,23,17,05,11.90
2009,04,23,17,06,11.90
2009,04,23,17,07,11.90
2009,04,23,17,08,11.90
2009,04,23,17,09,12.00
2009,04,23,17,10,12.00
2009,04,23,17,11,11.90
2009,04,23,17,12,11.90
2009,04,23,17,13,11.90
2009,04,23,17,14,12.00
2009,04,23,17,15,12.10
2009,04,23,17,16,12.20
2009,04,23,17,17,12.20
2009,04,23,17,18,12.20
2009,04,23,17,19,12.20
2009,04,23,17,20,12.20
2009,04,23,17,21,12.20
2009,04,23,17,22,12.10
2009,04,23,17,23,12.10
2009,04,23,17,24,12.00
2009,04,23,17,25,11.90
2009,04,23,17,26,11.90
2009,04,23,17,27,11.90
2009,04,23,17,28,11.90
2009,04,23,17,29,11.90
2009,04,23,17,30,12.00
2009,04,23,17,31,12.00
2009,04,23,17,32,12.10
2009,04,23,17,33,12.10
2009,04,23,17,34,12.20
2009,04,23,17,35,12.10
2009,04,23,17,36,12.10
2009,04,23,17,37,12.10
2009,04,23,17,38,12.10
2009,04,23,17,39,12.10
2009,04,23,17,40,12.10
2009,04,23,17,41,12.10
2009,04,23,17,42,12.10
2009,04,23,17,43,12.00
2009,04,23,17,44,11.80
2009,04,23,17,45,11.80
2009,04,23,17,46,11.70
2009,04,23,17,47,11.70
2009,04,23,17,48,11.70
2009,04,23,17,49,11.70
2009,04,23,17,50,11.60
2009,04,23,17,51,11.60
2009,04,23,17,52,11.60
2009,04,23,17,53,11.70
2009,04,23,17,54,11.80